Regional Weather Roundup
Issued by NWS Midland/Odessa, TX

Skip options and go directly to product.
Home | Oldest Version | Previous Version | Current Version | All | Graphics & Text | Save Text | Print | Product List | Glossary On

Skip product version selection by date and time.   
701
ASUS44 KMAF 181010
RWRMAF
MIDLAND AREA WEATHER ROUNDUP
NATIONAL WEATHER SERVICE MIDLAND TX
400 AM CST THU DEC 18 2014

...IN SOUTHWEST TEXAS AND SOUTHEAST NEW MEXICO...

CITY           SKY/WX    TMP DP  RH WIND       PRES   REMARKS
ALPINE         CLEAR     33  26  75 SW6       30.19S WCI  27
ANDREWS        FAIR      42  30  63 SW8       30.08R WCI  37
ARTESIA        CLEAR     37  30  75 SE3       30.09R
BIG SPRING     CLEAR     39  36  91 SE3       30.09S
CARLSBAD       CLEAR     50  33  52 W15       30.07S
DRYDEN           N/A     45  44  97 W3        30.07S
FORT STOCKTON  CLEAR     44  29  55 SW13      30.10S WCI  38
GUAD PASS      NOT AVBL
HOBBS          CLEAR     41  32  70 W9        30.08S WCI  35
MARFA          CLEAR     27  23  86 SE3       30.16R
MIDLAND AIRPK  CLEAR     48  35  61 SW9       30.08S
MIDLAND INTL   CLEAR     42  36  79 SW9       30.07S WCI  37
ODESSA           N/A     42  34  73 SW3       30.08S
PECOS          CLEAR     37  27  68 SW8       30.10S WCI  31
PRESIDIO       FAIR      44  31  60 NW3       30.11R
SEMINOLE       CLEAR     41  31  68 NW12      30.07S WCI  34
SNYDER         FOG       36  36 100 SW3       30.06S VSB 1/4
WINK           CLEAR     45  28  51 W7        30.07S
$$
...OTHER STATIONS IN TEXAS...

CITY           SKY/WX    TMP DP  RH WIND       PRES   REMARKS
ABILENE        CLEAR     47  45  93 S6        30.06S
AMARILLO       FOG       31  31 100 NW8       30.01R VSB 1   WCI  23
AUSTIN         DRZL/FOG  48  48 100 N8        30.09F VSB 3/4
BROWNSVILLE    CLOUDY    71  68  90 SE8       30.00F
CORPUS CHRISTI CLOUDY    68  66  93 SE7       30.00F
DALLAS FTW     DRIZZLE   42  41  96 E7        30.11F FOG     WCI  38
DEL RIO        CLOUDY    53  52  96 W7        30.07S FOG
EL PASO        PTCLDY    42  34  73 S6        30.13S WCI  38
HOUSTON INT    LGT RAIN  59  57  93 E3        30.06F
LUBBOCK        CLEAR     34  30  85 W7        30.03R WCI  28
SAN ANGELO     CLOUDY    49  47  93 SW9       30.08S
SAN ANTONIO    DRZL/FOG  57  56  96 N5        30.06S VSB 1/4
WACO           CLOUDY    46  45  96 E5        30.11F FOG
WICHITA FALLS  NOT AVBL
$$
...OTHER LOCATIONS IN NEW MEXICO...

CITY           SKY/WX    TMP DP  RH WIND       PRES   REMARKS
ALAMAGORDO     MOCLDY    46  34  61 SE5       30.13R
ALBUQUERQUE    PTCLDY    31  29  92 S6        30.13R WCI  25
CANNON AFB     CLEAR     34  28  78 W13       30.03R WCI  25
CLOVIS         CLEAR     36  28  75 W13       30.01R WCI  27
HOLLOMAN AFB   MOCLDY    46  37  69 E1        30.12R
ROSWELL        CLEAR     33  27  78 N5        30.07S WCI  29
RUIDOSO        PTCLDY    36  23  60 W12       30.08F WCI  27
SANTA FE       PTCLDY    27  24  89 W3        30.08S
TRUTH OR CONSE CLOUDY    38  28  67 W5        30.11S WCI  34
TUCUMCARI      CLEAR     30  27  88 E3        30.01R
$$

USA.gov is the U.S. government's official web portal to all federal, state and local government web resources and services.